BEIJING 1 1 28890U 05043A 21017.20931623 .00000015 00000-0 12308-4 0 9990 2 28890 98.0560 146.1075 0015037 357.8272 2.2866 14.61315382811739 HJ-1A 1 33320U 08041A 21017.12928443 .00000290 00000-0 47807-4 0 9999 2 33320 97.7590 67.3620 0025876 92.8657 267.5522 14.77106155666148 HJ-1B 1 33321U 08041B 21017.16648933 .00000144 00000-0 27088-4 0 9994 2 33321 97.7675 69.9721 0036023 124.9573 235.5049 14.77314627666158 YAOGAN 4 1 33446U 08061A 21017.14394092 .00000075 00000-0 17587-4 0 9992 2 33446 97.7572 330.0591 0016504 12.2204 347.9403 14.77077448653370 DEIMOS-1 1 35681U 09041A 21017.16270041 .00000119 00000-0 26417-4 0 9994 2 35681 97.7798 247.7879 0002963 88.8733 271.2804 14.71868611615822 UK-DMC 2 1 35683U 09041C 21017.15381765 -.00000074 00000-0 -47066-5 0 9997 2 35683 97.6839 213.9204 0001768 103.8427 256.2957 14.71183258615599 RISAT 1 1 38248U 12017A 21017.00047195 .00000291 00000-0 21654-4 0 9997 2 38248 97.5636 29.6037 0003063 215.8038 144.2986 15.10324198480863 DMC3-FM1 1 40715U 15032A 21017.12937398 .00000016 00000-0 10001-4 0 9994 2 40715 97.9111 271.7698 0014105 258.1515 101.8116 14.73683367297122 DMC3-FM2 1 40716U 15032B 21017.15199438 .00000017 00000-0 10126-4 0 9992 2 40716 97.9138 272.2187 0011448 268.6777 91.3125 14.73697141297133 DMC3-FM3 1 40717U 15032C 21017.10626682 .00000030 00000-0 12259-4 0 9998 2 40717 97.9154 272.9338 0015071 259.5490 100.4026 14.73698864297128